Location: Caltech
(34.1382°N, 118.1253°W)
Time: 06:59:53
(UTC-07:00)

Cosmos 2219 - Visible Passes

Search period start: 25 July 2016 00:00
Search period end: 04 August 2016 00:00
Orbit: 834 x 860 km, 71.1° (Epoch: 24 July)

Date Brightness Start Highest point End Pass type
(mag) Time Alt. Az. Time Alt. Az. Time Alt. Az.
25 Jul 4.2 01:55:40 10° N 01:59:47 43° NNE 01:59:47 43° NNE visible
25 Jul 5.4 03:41:24 10° WNW 03:41:39 11° WNW 03:41:39 11° WNW visible
26 Jul 4.4 01:42:14 10° N 01:46:01 39° NNE 01:46:01 39° NNE visible
26 Jul 5.5 03:27:53 10° WNW 03:27:54 10° WNW 03:27:54 10° WNW visible
27 Jul 4.5 01:28:49 10° N 01:32:19 35° NNE 01:32:19 35° NNE visible
28 Jul 4.7 01:15:23 10° N 01:18:42 33° NNE 01:18:42 33° NNE visible
29 Jul 4.7 01:01:57 10° N 01:05:08 31° N 01:05:08 31° N visible
30 Jul 4.8 00:48:32 10° N 00:51:36 30° N 00:51:36 30° N visible
31 Jul 4.8 00:35:06 10° N 00:38:07 29° NNE 00:38:07 29° NNE visible
01 Aug 4.8 00:21:41 10° N 00:24:41 29° NNE 00:24:41 29° NNE visible
02 Aug 4.8 00:08:15 10° N 00:11:16 29° NNE 00:11:16 29° NNE visible
02 Aug 4.8 23:54:50 10° N 23:57:54 29° NNE 23:57:54 29° NNE visible
03 Aug 4.7 23:41:24 10° N 23:44:33 29° NNE 23:44:33 29° NNE visible
